Time,TemperatureF,DewpointF,PressureIn,WindDirection,WindDirectionDegrees,WindSpeedMPH,WindSpeedGustMPH,Humidity,HourlyPrecipIn,Conditions,Clouds,dailyrainin,SoftwareType,DateUTC
2014-08-30 00:02:00,68.7,44.8,29.76,ESE,111,0.0,0.0,42,0.00,,,0.00,meteobridge,2014-08-30 06:02:00,
2014-08-30 00:07:00,68.5,44.6,29.76,ESE,111,0.0,0.0,42,0.00,,,0.00,meteobridge,2014-08-30 06:07:00,
2014-08-30 00:12:00,68.4,44.4,29.77,ESE,111,0.0,0.0,42,0.00,,,0.00,meteobridge,2014-08-30 06:12:00,
2014-08-30 00:18:00,68.0,44.6,29.76,ESE,111,0.0,0.0,43,0.00,,,0.00,meteobridge,2014-08-30 06:18:00,
2014-08-30 00:23:00,67.6,44.4,29.76,ESE,111,0.0,0.0,43,0.00,,,0.00,meteobridge,2014-08-30 06:23:00,
2014-08-30 00:28:00,67.5,44.8,29.76,ESE,111,0.0,0.0,44,0.00,,,0.00,meteobridge,2014-08-30 06:28:00,
2014-08-30 00:33:00,67.3,45.1,29.76,ESE,111,0.0,0.0,45,0.00,,,0.00,meteobridge,2014-08-30 06:33:00,
2014-08-30 00:38:00,66.9,44.2,29.76,ESE,111,0.0,0.0,44,0.00,,,0.00,meteobridge,2014-08-30 06:38:00,
2014-08-30 00:43:00,66.9,45.5,29.76,ESE,111,0.0,0.0,46,0.00,,,0.00,meteobridge,2014-08-30 06:43:00,
2014-08-30 00:48:00,66.6,45.1,29.77,ESE,111,0.0,0.0,46,0.00,,,0.00,meteobridge,2014-08-30 06:48:00,
2014-08-30 00:53:00,66.4,45.0,29.76,ESE,111,0.0,1.0,46,0.00,,,0.00,meteobridge,2014-08-30 06:53:00,
2014-08-30 00:58:00,66.2,45.3,29.76,ESE,111,0.0,0.0,47,0.00,,,0.00,meteobridge,2014-08-30 06:58:00,
2014-08-30 01:03:00,66.0,45.1,29.76,ESE,111,0.0,0.0,47,0.00,,,0.00,meteobridge,2014-08-30 07:03:00,
2014-08-30 01:08:00,66.0,45.7,29.76,ESE,111,0.0,0.0,48,0.00,,,0.00,meteobridge,2014-08-30 07:08:00,
2014-08-30 01:13:00,65.8,46.8,29.77,ESE,111,0.0,0.0,50,0.00,,,0.00,meteobridge,2014-08-30 07:13:00,
2014-08-30 01:18:00,65.7,47.5,29.77,ESE,111,0.0,0.0,52,0.00,,,0.00,meteobridge,2014-08-30 07:18:00,
2014-08-30 01:23:00,65.5,47.8,29.77,ESE,111,0.0,0.0,53,0.00,,,0.00,meteobridge,2014-08-30 07:23:00,
2014-08-30 01:28:00,65.1,48.0,29.77,ESE,111,0.0,0.0,54,0.00,,,0.00,meteobridge,2014-08-30 07:28:00,
2014-08-30 01:33:00,64.9,48.4,29.77,ESE,111,0.0,0.0,55,0.00,,,0.00,meteobridge,2014-08-30 07:33:00,
2014-08-30 01:38:00,64.6,47.1,29.77,ESE,111,0.0,0.0,53,0.00,,,0.00,meteobridge,2014-08-30 07:38:00,
2014-08-30 01:43:00,64.2,46.8,29.77,ESE,111,0.0,0.0,53,0.00,,,0.00,meteobridge,2014-08-30 07:43:00,
2014-08-30 01:48:00,64.0,46.6,29.77,ESE,111,0.0,0.0,53,0.00,,,0.00,meteobridge,2014-08-30 07:48:00,
2014-08-30 01:53:00,63.7,46.8,29.77,ESE,111,0.0,0.0,54,0.00,,,0.00,meteobridge,2014-08-30 07:53:00,
2014-08-30 01:58:00,63.3,45.9,29.76,ESE,111,0.0,0.0,53,0.00,,,0.00,meteobridge,2014-08-30 07:58:00,
2014-08-30 02:03:00,63.1,45.1,29.77,ESE,111,0.0,0.0,52,0.00,,,0.00,meteobridge,2014-08-30 08:03:00,
2014-08-30 02:08:00,63.1,46.2,29.77,South,189,0.0,2.0,54,0.00,,,0.00,meteobridge,2014-08-30 08:08:00,
2014-08-30 02:13:00,63.0,46.0,29.77,South,189,0.0,0.0,54,0.00,,,0.00,meteobridge,2014-08-30 08:13:00,
2014-08-30 02:18:00,63.0,46.0,29.77,South,189,0.0,0.0,54,0.00,,,0.00,meteobridge,2014-08-30 08:18:00,
2014-08-30 02:23:00,62.8,45.9,29.77,South,189,0.0,0.0,54,0.00,,,0.00,meteobridge,2014-08-30 08:23:00,
2014-08-30 02:28:00,62.8,46.4,29.77,South,189,0.0,0.0,55,0.00,,,0.00,meteobridge,2014-08-30 08:28:00,
2014-08-30 02:33:00,62.6,46.2,29.78,South,189,0.0,0.0,55,0.00,,,0.00,meteobridge,2014-08-30 08:33:00,
2014-08-30 02:39:00,62.6,46.2,29.78,South,189,0.0,0.0,55,0.00,,,0.00,meteobridge,2014-08-30 08:39:00,
2014-08-30 02:44:00,62.4,46.0,29.78,South,189,0.0,0.0,55,0.00,,,0.00,meteobridge,2014-08-30 08:44:00,
2014-08-30 02:49:00,62.2,45.9,29.78,South,189,0.0,0.0,55,0.00,,,0.00,meteobridge,2014-08-30 08:49:00,
2014-08-30 02:54:00,62.2,45.3,29.78,South,189,0.0,0.0,54,0.00,,,0.00,meteobridge,2014-08-30 08:54:00,
2014-08-30 02:59:00,62.1,44.8,29.78,South,189,0.0,0.0,53,0.00,,,0.00,meteobridge,2014-08-30 08:59:00,
2014-08-30 03:04:00,62.1,44.2,29.78,South,189,0.0,0.0,52,0.00,,,0.00,meteobridge,2014-08-30 09:04:00,
2014-08-30 03:09:00,62.1,45.1,29.78,South,189,0.0,0.0,54,0.00,,,0.00,meteobridge,2014-08-30 09:09:00,
2014-08-30 03:14:00,61.9,45.1,29.78,South,189,0.0,0.0,54,0.00,,,0.00,meteobridge,2014-08-30 09:14:00,
2014-08-30 03:19:00,61.7,45.0,29.78,South,189,0.0,0.0,54,0.00,,,0.00,meteobridge,2014-08-30 09:19:00,
2014-08-30 03:24:00,61.5,44.2,29.78,South,189,0.0,1.0,53,0.00,,,0.00,meteobridge,2014-08-30 09:24:00,
2014-08-30 03:29:00,61.3,44.1,29.78,South,189,0.0,0.0,53,0.00,,,0.00,meteobridge,2014-08-30 09:29:00,
2014-08-30 03:34:00,61.2,44.4,29.78,South,189,0.0,0.0,54,0.00,,,0.00,meteobridge,2014-08-30 09:34:00,
2014-08-30 03:39:00,61.0,44.8,29.78,South,189,0.0,0.0,55,0.00,,,0.00,meteobridge,2014-08-30 09:39:00,
2014-08-30 03:44:00,60.8,43.5,29.78,South,189,0.9,1.0,53,0.00,,,0.00,meteobridge,2014-08-30 09:44:00,
2014-08-30 03:49:00,60.6,43.0,29.78,SSW,196,0.0,1.0,52,0.00,,,0.00,meteobridge,2014-08-30 09:49:00,
2014-08-30 03:54:00,60.6,43.9,29.79,SSW,196,0.0,0.0,54,0.00,,,0.00,meteobridge,2014-08-30 09:54:00,
2014-08-30 03:59:00,60.4,43.7,29.79,SSW,196,0.0,0.0,54,0.00,,,0.00,meteobridge,2014-08-30 09:59:00,
2014-08-30 04:04:00,60.4,43.7,29.79,SSW,196,0.0,0.0,54,0.00,,,0.00,meteobridge,2014-08-30 10:04:00,
2014-08-30 04:09:00,60.3,43.5,29.79,SSW,196,1.0,1.0,54,0.00,,,0.00,meteobridge,2014-08-30 10:09:00,
2014-08-30 04:14:00,60.1,43.9,29.78,SSW,197,0.0,1.0,55,0.00,,,0.00,meteobridge,2014-08-30 10:14:00,
2014-08-30 04:19:00,59.7,43.0,29.79,SSW,198,0.0,1.0,54,0.00,,,0.00,meteobridge,2014-08-30 10:19:00,
2014-08-30 04:24:00,59.7,42.6,29.79,NW,314,0.0,1.0,53,0.00,,,0.00,meteobridge,2014-08-30 10:24:00,
2014-08-30 04:29:00,59.7,42.6,29.78,NW,319,0.9,2.0,53,0.00,,,0.00,meteobridge,2014-08-30 10:29:00,
2014-08-30 04:34:00,59.7,42.6,29.79,North,0,0.9,4.0,53,0.00,,,0.00,meteobridge,2014-08-30 10:34:00,
2014-08-30 04:39:00,60.1,43.0,29.79,North,0,0.0,1.0,53,0.00,,,0.00,meteobridge,2014-08-30 10:39:00,
2014-08-30 04:45:00,60.1,43.3,29.79,North,0,0.9,1.0,54,0.00,,,0.00,meteobridge,2014-08-30 10:45:00,
2014-08-30 04:50:00,60.3,43.5,29.79,North,0,0.0,0.0,54,0.00,,,0.00,meteobridge,2014-08-30 10:50:00,
2014-08-30 04:55:00,60.3,43.5,29.79,North,0,0.0,0.0,54,0.00,,,0.00,meteobridge,2014-08-30 10:55:00,
2014-08-30 05:00:00,60.3,43.5,29.79,North,0,0.0,0.0,54,0.00,,,0.00,meteobridge,2014-08-30 11:00:00,
2014-08-30 05:05:00,60.3,43.5,29.79,North,0,0.0,0.0,54,0.00,,,0.00,meteobridge,2014-08-30 11:05:00,
2014-08-30 05:10:00,60.1,43.3,29.79,North,0,0.0,0.0,54,0.00,,,0.00,meteobridge,2014-08-30 11:10:00,
2014-08-30 05:15:00,60.1,43.9,29.78,North,0,0.0,0.0,55,0.00,,,0.00,meteobridge,2014-08-30 11:15:00,
2014-08-30 05:20:00,59.9,44.2,29.78,North,0,0.0,0.0,56,0.00,,,0.00,meteobridge,2014-08-30 11:20:00,
2014-08-30 05:25:00,59.7,44.1,29.79,North,0,0.0,0.0,56,0.00,,,0.00,meteobridge,2014-08-30 11:25:00,
2014-08-30 05:30:00,59.5,43.9,29.79,North,0,0.0,0.0,56,0.00,,,0.00,meteobridge,2014-08-30 11:30:00,
2014-08-30 05:35:00,59.2,43.5,29.80,North,0,0.0,0.0,56,0.00,,,0.00,meteobridge,2014-08-30 11:35:00,
2014-08-30 05:40:00,59.0,43.7,29.80,North,0,0.0,0.0,57,0.00,,,0.00,meteobridge,2014-08-30 11:40:00,
2014-08-30 05:45:00,58.6,43.9,29.80,North,0,0.0,0.0,58,0.00,,,0.00,meteobridge,2014-08-30 11:45:00,
2014-08-30 05:50:00,58.5,43.7,29.80,North,0,0.0,0.0,58,0.00,,,0.00,meteobridge,2014-08-30 11:50:00,
2014-08-30 05:55:00,58.3,44.1,29.80,North,0,0.0,0.0,59,0.00,,,0.00,meteobridge,2014-08-30 11:55:00,
2014-08-30 06:00:00,57.9,44.1,29.80,North,0,0.0,1.0,60,0.00,,,0.00,meteobridge,2014-08-30 12:00:00,
2014-08-30 06:05:00,57.6,43.7,29.80,North,355,2.0,2.0,60,0.00,,,0.00,meteobridge,2014-08-30 12:05:00,
2014-08-30 06:10:00,57.4,44.1,29.81,North,355,0.0,1.0,61,0.00,,,0.00,meteobridge,2014-08-30 12:10:00,
2014-08-30 06:15:00,57.4,44.1,29.80,North,355,0.0,2.0,61,0.00,,,0.00,meteobridge,2014-08-30 12:15:00,
2014-08-30 06:20:00,57.4,44.1,29.80,NNW,338,0.0,0.0,61,0.00,,,0.00,meteobridge,2014-08-30 12:20:00,
2014-08-30 06:25:00,57.4,44.1,29.81,NNW,338,0.0,1.0,61,0.00,,,0.00,meteobridge,2014-08-30 12:25:00,
2014-08-30 06:30:00,57.4,44.1,29.81,NNW,338,0.0,0.0,61,0.00,,,0.00,meteobridge,2014-08-30 12:30:00,
2014-08-30 06:35:00,57.4,44.1,29.81,NNW,338,0.0,0.0,61,0.00,,,0.00,meteobridge,2014-08-30 12:35:00,
2014-08-30 06:41:00,57.2,43.9,29.81,NNW,338,0.0,0.0,61,0.00,,,0.00,meteobridge,2014-08-30 12:41:00,
2014-08-30 06:46:00,57.0,43.7,29.81,NNW,338,0.0,0.0,61,0.00,,,0.00,meteobridge,2014-08-30 12:46:00,
2014-08-30 06:51:00,57.0,44.1,29.82,NNW,338,0.0,0.0,62,0.00,,,0.00,meteobridge,2014-08-30 12:51:00,
2014-08-30 06:56:00,56.8,44.4,29.82,NNW,338,0.0,0.0,63,0.00,,,0.00,meteobridge,2014-08-30 12:56:00,
2014-08-30 07:01:00,56.7,44.2,29.82,NNW,338,0.0,0.0,63,0.00,,,0.00,meteobridge,2014-08-30 13:01:00,
2014-08-30 07:06:00,56.5,44.4,29.82,NNW,338,0.0,0.0,64,0.00,,,0.00,meteobridge,2014-08-30 13:06:00,
2014-08-30 07:11:00,56.5,44.8,29.82,NNW,338,0.0,0.0,65,0.00,,,0.00,meteobridge,2014-08-30 13:11:00,
2014-08-30 07:16:00,56.5,45.3,29.82,NNW,338,0.0,0.0,66,0.00,,,0.00,meteobridge,2014-08-30 13:16:00,
2014-08-30 07:21:00,56.5,45.3,29.82,NNW,338,0.0,0.0,66,0.00,,,0.00,meteobridge,2014-08-30 13:21:00,
2014-08-30 07:26:00,56.8,46.0,29.82,NNW,338,0.0,0.0,67,0.00,,,0.00,meteobridge,2014-08-30 13:26:00,
2014-08-30 07:31:00,57.0,45.9,29.82,NNW,338,0.0,1.0,66,0.00,,,0.00,meteobridge,2014-08-30 13:31:00,
2014-08-30 07:36:00,57.6,45.9,29.83,NNW,338,0.0,0.0,65,0.00,,,0.00,meteobridge,2014-08-30 13:36:00,
2014-08-30 07:41:00,57.9,45.0,29.83,North,350,0.0,1.0,62,0.00,,,0.00,meteobridge,2014-08-30 13:41:00,
2014-08-30 07:46:00,58.6,45.3,29.83,North,350,0.0,1.0,61,0.00,,,0.00,meteobridge,2014-08-30 13:46:00,
2014-08-30 07:51:00,59.2,44.8,29.83,North,350,0.0,0.0,59,0.00,,,0.00,meteobridge,2014-08-30 13:51:00,
2014-08-30 07:56:00,59.7,45.3,29.83,North,350,0.0,3.0,59,0.00,,,0.00,meteobridge,2014-08-30 13:56:00,
2014-08-30 08:01:00,60.3,45.0,29.83,WNW,288,0.0,3.0,57,0.00,,,0.00,meteobridge,2014-08-30 14:01:00,
2014-08-30 08:06:00,61.0,45.1,29.83,North,355,0.9,4.0,56,0.00,,,0.00,meteobridge,2014-08-30 14:06:00,
2014-08-30 08:11:00,61.9,45.5,29.83,North,351,0.0,1.0,55,0.00,,,0.00,meteobridge,2014-08-30 14:11:00,
2014-08-30 08:16:00,62.4,45.5,29.83,North,351,0.0,0.0,54,0.00,,,0.00,meteobridge,2014-08-30 14:16:00,
2014-08-30 08:21:00,63.1,46.2,29.83,North,355,0.0,0.0,54,0.00,,,0.00,meteobridge,2014-08-30 14:21:00,
2014-08-30 08:26:00,63.9,45.9,29.83,NNW,347,0.9,4.0,52,0.00,,,0.00,meteobridge,2014-08-30 14:26:00,
2014-08-30 08:31:00,64.8,45.7,29.83,NNW,347,2.0,3.0,50,0.00,,,0.00,meteobridge,2014-08-30 14:31:00,
2014-08-30 08:36:00,65.5,45.9,29.83,NNW,340,0.9,4.0,49,0.00,,,0.00,meteobridge,2014-08-30 14:36:00,
2014-08-30 08:41:00,66.0,46.4,29.83,NNE,15,2.0,3.0,49,0.00,,,0.00,meteobridge,2014-08-30 14:41:00,
2014-08-30 08:46:00,66.7,45.9,29.83,NNE,15,0.0,4.0,47,0.00,,,0.00,meteobridge,2014-08-30 14:46:00,
2014-08-30 08:51:00,67.3,46.4,29.83,North,5,0.9,4.0,47,0.00,,,0.00,meteobridge,2014-08-30 14:51:00,
2014-08-30 08:56:00,67.8,45.7,29.83,North,5,0.0,1.0,45,0.00,,,0.00,meteobridge,2014-08-30 14:56:00,
2014-08-30 09:01:00,68.4,45.7,29.83,North,5,4.0,4.0,44,0.00,,,0.00,meteobridge,2014-08-30 15:01:00,
2014-08-30 09:06:00,69.1,45.7,29.83,North,355,2.0,2.0,43,0.00,,,0.00,meteobridge,2014-08-30 15:06:00,
2014-08-30 09:11:00,69.4,45.3,29.83,North,355,0.0,3.0,42,0.00,,,0.00,meteobridge,2014-08-30 15:11:00,
2014-08-30 09:16:00,69.8,45.0,29.83,North,355,0.9,1.0,41,0.00,,,0.00,meteobridge,2014-08-30 15:16:00,
2014-08-30 09:21:00,70.2,44.8,29.83,North,355,0.0,1.0,40,0.00,,,0.00,meteobridge,2014-08-30 15:21:00,
2014-08-30 09:26:00,70.5,45.0,29.83,North,355,0.0,3.0,40,0.00,,,0.00,meteobridge,2014-08-30 15:26:00,
2014-08-30 09:31:00,71.1,45.5,29.83,North,0,2.0,3.0,40,0.00,,,0.00,meteobridge,2014-08-30 15:31:00,
2014-08-30 09:37:00,71.8,46.2,29.83,North,0,0.0,1.0,40,0.00,,,0.00,meteobridge,2014-08-30 15:37:00,
2014-08-30 09:42:00,72.1,45.9,29.83,North,0,0.0,1.0,39,0.00,,,0.00,meteobridge,2014-08-30 15:42:00,
2014-08-30 09:47:00,72.7,45.7,29.83,WNW,284,0.0,0.0,38,0.00,,,0.00,meteobridge,2014-08-30 15:47:00,
2014-08-30 09:52:00,73.0,45.9,29.83,WNW,284,0.0,1.0,38,0.00,,,0.00,meteobridge,2014-08-30 15:52:00,
2014-08-30 09:57:00,73.8,45.9,29.83,WNW,284,0.0,1.0,37,0.00,,,0.00,meteobridge,2014-08-30 15:57:00,
2014-08-30 10:02:00,74.5,45.9,29.83,NNW,327,0.0,3.0,36,0.00,,,0.00,meteobridge,2014-08-30 16:02:00,
2014-08-30 10:07:00,74.8,46.0,29.83,NNW,329,0.9,1.0,36,0.00,,,0.00,meteobridge,2014-08-30 16:07:00,
2014-08-30 10:12:00,75.4,46.6,29.82,NNW,329,0.0,1.0,36,0.00,,,0.00,meteobridge,2014-08-30 16:12:00,
2014-08-30 10:17:00,75.7,46.2,29.82,NNW,329,0.0,0.0,35,0.00,,,0.00,meteobridge,2014-08-30 16:17:00,
2014-08-30 10:22:00,76.5,46.0,29.82,North,0,0.0,2.0,34,0.00,,,0.00,meteobridge,2014-08-30 16:22:00,
2014-08-30 10:27:00,76.8,46.4,29.82,West,281,0.0,1.0,34,0.00,,,0.00,meteobridge,2014-08-30 16:27:00,
2014-08-30 10:32:00,77.5,46.2,29.83,SE,140,0.0,2.0,33,0.00,,,0.00,meteobridge,2014-08-30 16:32:00,
2014-08-30 10:37:00,78.4,46.9,29.83,SW,228,0.9,2.0,33,0.00,,,0.00,meteobridge,2014-08-30 16:37:00,
2014-08-30 10:42:00,79.3,46.9,29.83,WNW,303,0.0,3.0,32,0.00,,,0.00,meteobridge,2014-08-30 16:42:00,
2014-08-30 10:47:00,79.9,47.3,29.83,SW,215,2.0,2.0,32,0.00,,,0.00,meteobridge,2014-08-30 16:47:00,